Time,TemperatureF,DewpointF,PressureIn,WindDirection,WindDirectionDegrees,WindSpeedMPH,WindSpeedGustMPH,Humidity,HourlyPrecipIn,Conditions,Clouds,dailyrainin,SoftwareType,DateUTC
2013-07-18 00:12:00,79.0,71.0,-100.00,WNW,295,0.0,0.0,77,0.00,,,-99.99,,2013-07-18 04:12:00,
2013-07-18 00:22:00,78.0,70.0,-100.00,NW,305,0.0,1.0,75,0.00,,,-99.99,,2013-07-18 04:22:00,
2013-07-18 00:32:00,77.0,71.0,-100.00,WSW,255,1.0,1.0,80,0.00,,,-99.99,,2013-07-18 04:32:00,
2013-07-18 00:43:00,76.0,70.0,-100.00,West,265,0.0,1.0,81,0.00,,,-99.99,,2013-07-18 04:43:00,
2013-07-18 01:02:00,76.0,70.0,-100.00,WNW,295,1.0,2.0,82,0.00,,,-99.99,,2013-07-18 05:02:00,
2013-07-18 02:01:00,75.0,70.0,-100.00,NW,320,3.0,4.0,83,0.00,,,-99.99,,2013-07-18 06:01:00,
2013-07-18 02:32:00,74.0,70.0,-100.00,WNW,285,1.0,1.0,86,0.00,,,-99.99,,2013-07-18 06:32:00,
2013-07-18 02:43:00,74.0,70.0,-100.00,WNW,290,1.0,2.0,86,0.00,,,-99.99,,2013-07-18 06:43:00,
2013-07-18 02:52:00,74.0,70.0,-100.00,West,260,1.0,3.0,88,0.00,,,-99.99,,2013-07-18 06:52:00,
2013-07-18 03:01:00,74.0,70.0,-100.00,WSW,255,1.0,2.0,88,0.00,,,-99.99,,2013-07-18 07:01:00,
2013-07-18 03:12:00,73.0,70.0,-100.00,West,275,2.0,3.0,89,0.00,,,-99.99,,2013-07-18 07:12:00,
2013-07-18 03:22:00,73.0,70.0,-100.00,NW,305,2.0,3.0,89,0.00,,,-99.99,,2013-07-18 07:22:00,
2013-07-18 03:32:00,73.0,70.0,-100.00,NW,305,2.0,4.0,89,0.00,,,-99.99,,2013-07-18 07:32:00,
2013-07-18 03:42:00,73.0,70.0,-100.00,West,275,2.0,3.0,90,0.00,,,-99.99,,2013-07-18 07:42:00,
2013-07-18 03:52:00,73.0,70.0,-100.00,WNW,300,3.0,4.0,90,0.00,,,-99.99,,2013-07-18 07:52:00,
2013-07-18 04:01:00,73.0,70.0,-100.00,West,280,2.0,3.0,90,0.00,,,-99.99,,2013-07-18 08:01:00,
2013-07-18 04:11:00,73.0,70.0,-100.00,WNW,300,1.0,2.0,90,0.00,,,-99.99,,2013-07-18 08:11:00,
2013-07-18 04:21:00,73.0,70.0,-100.00,West,275,1.0,2.0,90,0.00,,,-99.99,,2013-07-18 08:21:00,
2013-07-18 04:32:00,73.0,70.0,-100.00,WNW,290,1.0,2.0,89,0.00,,,-99.99,,2013-07-18 08:32:00,
2013-07-18 04:42:00,73.0,70.0,-100.00,WNW,285,1.0,2.0,89,0.00,,,-99.99,,2013-07-18 08:42:00,
2013-07-18 04:51:00,73.0,70.0,-100.00,WNW,285,2.0,3.0,90,0.00,,,-99.99,,2013-07-18 08:51:00,
2013-07-18 05:01:00,72.0,69.0,-100.00,WNW,295,2.0,3.0,90,0.00,,,-99.99,,2013-07-18 09:01:00,
2013-07-18 05:11:00,73.0,70.0,-100.00,WSW,255,2.0,3.0,90,0.00,,,-99.99,,2013-07-18 09:11:00,
2013-07-18 05:32:00,73.0,70.0,-100.00,WNW,290,1.0,3.0,89,0.00,,,-99.99,,2013-07-18 09:32:00,
2013-07-18 05:42:00,73.0,69.0,-100.00,NW,310,2.0,3.0,89,0.00,,,-99.99,,2013-07-18 09:42:00,
2013-07-18 06:22:00,72.0,69.0,-100.00,West,270,1.0,2.0,91,0.00,,,-99.99,,2013-07-18 10:22:00,
2013-07-18 06:43:00,73.0,69.0,-100.00,West,275,1.0,3.0,90,0.00,,,-99.99,,2013-07-18 10:43:00,
2013-07-18 07:01:00,73.0,70.0,-100.00,West,275,1.0,3.0,89,0.00,,,-99.99,,2013-07-18 11:01:00,
2013-07-18 07:11:00,73.0,70.0,-100.00,WNW,285,2.0,3.0,89,0.00,,,-99.99,,2013-07-18 11:11:00,
2013-07-18 07:43:00,75.0,71.0,-100.00,WNW,290,1.0,3.0,86,0.00,,,-99.99,,2013-07-18 11:43:00,
2013-07-18 08:11:00,76.0,71.0,-100.00,WNW,285,2.0,3.0,84,0.00,,,-99.99,,2013-07-18 12:11:00,
2013-07-18 08:22:00,77.0,71.0,-100.00,WNW,290,3.0,4.0,83,0.00,,,-99.99,,2013-07-18 12:22:00,
2013-07-18 08:32:00,77.0,72.0,-100.00,WNW,285,2.0,4.0,82,0.00,,,-99.99,,2013-07-18 12:32:00,
2013-07-18 08:42:00,78.0,72.0,-100.00,West,280,2.0,6.0,80,0.00,,,-99.99,,2013-07-18 12:42:00,
2013-07-18 10:43:00,84.0,72.0,-100.00,SW,220,2.0,6.0,67,0.00,,,-99.99,,2013-07-18 14:43:00,
2013-07-18 11:01:00,86.0,74.0,-100.00,WSW,255,2.0,4.0,66,0.00,,,-99.99,,2013-07-18 15:01:00,
2013-07-18 11:43:00,85.0,71.0,-100.00,West,260,4.0,6.0,64,0.00,,,-99.99,,2013-07-18 15:43:00,
2013-07-18 12:11:00,86.0,71.0,-100.00,WSW,250,3.0,8.0,62,0.00,,,-99.99,,2013-07-18 16:11:00,
2013-07-18 12:42:00,86.0,73.0,-100.00,NW,315,3.0,6.0,65,0.00,,,-99.99,,2013-07-18 16:42:00,
2013-07-18 13:02:00,86.0,73.0,-100.00,WNW,285,4.0,7.0,65,0.00,,,-99.99,,2013-07-18 17:02:00,
2013-07-18 13:43:00,85.0,72.0,-100.00,NW,305,3.0,6.0,64,0.00,,,-99.99,,2013-07-18 17:43:00,
2013-07-18 14:01:00,86.0,73.0,-100.00,NW,325,4.0,6.0,65,0.00,,,-99.99,,2013-07-18 18:01:00,
2013-07-18 14:11:00,87.0,72.0,-100.00,SW,235,3.0,7.0,60,0.00,,,-99.99,,2013-07-18 18:11:00,
2013-07-18 14:22:00,89.0,71.0,-100.00,West,265,1.0,6.0,55,0.00,,,-99.99,,2013-07-18 18:22:00,
2013-07-18 14:32:00,88.0,72.0,-100.00,WSW,255,4.0,7.0,60,0.00,,,-99.99,,2013-07-18 18:32:00,
2013-07-18 14:43:00,87.0,73.0,-100.00,West,275,6.0,11.0,62,0.00,,,-99.99,,2013-07-18 18:43:00,
2013-07-18 15:11:00,87.0,73.0,-100.00,West,260,6.0,7.0,63,0.00,,,-99.99,,2013-07-18 19:11:00,
2013-07-18 15:22:00,86.0,73.0,-100.00,WSW,250,4.0,8.0,64,0.00,,,-99.99,,2013-07-18 19:22:00,
2013-07-18 15:32:00,88.0,72.0,-100.00,WNW,285,4.0,6.0,59,0.00,,,-99.99,,2013-07-18 19:32:00,
2013-07-18 15:43:00,87.0,72.0,-100.00,West,280,6.0,9.0,59,0.00,,,-99.99,,2013-07-18 19:43:00,
2013-07-18 17:01:00,90.0,71.0,-100.00,West,270,6.0,9.0,54,0.00,,,-99.99,,2013-07-18 21:01:00,
2013-07-18 17:11:00,89.0,73.0,-100.00,West,265,4.0,9.0,57,0.00,,,-99.99,,2013-07-18 21:11:00,
2013-07-18 17:22:00,90.0,72.0,-100.00,West,260,3.0,6.0,56,0.00,,,-99.99,,2013-07-18 21:22:00,
2013-07-18 17:32:00,89.0,72.0,-100.00,West,270,6.0,8.0,56,0.00,,,-99.99,,2013-07-18 21:32:00,
2013-07-18 17:43:00,88.0,73.0,-100.00,West,275,6.0,10.0,59,0.00,,,-99.99,,2013-07-18 21:43:00,
2013-07-18 17:52:00,89.0,72.0,-100.00,West,275,7.0,11.0,57,0.00,,,-99.99,,2013-07-18 21:52:00,
2013-07-18 18:01:00,88.0,71.0,-100.00,WNW,285,6.0,10.0,56,0.00,,,-99.99,,2013-07-18 22:01:00,
2013-07-18 18:22:00,89.0,71.0,-100.00,West,265,5.0,8.0,56,0.00,,,-99.99,,2013-07-18 22:22:00,
2013-07-18 18:32:00,89.0,72.0,-100.00,WSW,255,4.0,8.0,56,0.00,,,-99.99,,2013-07-18 22:32:00,
2013-07-18 18:43:00,89.0,72.0,-100.00,West,270,4.0,6.0,57,0.00,,,-99.99,,2013-07-18 22:43:00,
2013-07-18 19:02:00,89.0,71.0,-100.00,West,260,3.0,6.0,55,0.00,,,-99.99,,2013-07-18 23:02:00,
2013-07-18 19:22:00,89.0,71.0,-100.00,West,265,3.0,5.0,56,0.00,,,-99.99,,2013-07-18 23:22:00,
2013-07-18 19:32:00,89.0,72.0,-100.00,WNW,290,1.0,4.0,57,0.00,,,-99.99,,2013-07-18 23:32:00,
2013-07-18 19:42:00,89.0,71.0,-100.00,WSW,245,2.0,4.0,56,0.00,,,-99.99,,2013-07-18 23:42:00,
2013-07-18 19:52:00,89.0,73.0,-100.00,WSW,250,1.0,3.0,60,0.00,,,-99.99,,2013-07-18 23:52:00,
2013-07-18 20:01:00,89.0,72.0,-100.00,SW,215,1.0,2.0,58,0.00,,,-99.99,,2013-07-19 00:01:00,
2013-07-18 20:11:00,87.0,72.0,-100.00,SSW,210,1.0,3.0,60,0.00,,,-99.99,,2013-07-19 00:11:00,
2013-07-18 20:22:00,87.0,72.0,-100.00,WSW,255,1.0,2.0,60,0.00,,,-99.99,,2013-07-19 00:22:00,
2013-07-18 20:32:00,85.0,73.0,-100.00,WSW,255,0.0,0.0,67,0.00,,,-99.99,,2013-07-19 00:32:00,
2013-07-18 20:43:00,85.0,73.0,-100.00,SW,225,0.0,0.0,67,0.00,,,-99.99,,2013-07-19 00:43:00,
2013-07-18 20:52:00,84.0,74.0,-100.00,West,275,0.0,1.0,71,0.00,,,-99.99,,2013-07-19 00:52:00,
2013-07-18 21:01:00,83.0,73.0,-100.00,WSW,250,0.0,1.0,70,0.00,,,-99.99,,2013-07-19 01:01:00,
2013-07-18 21:11:00,83.0,72.0,-100.00,SW,225,1.0,2.0,69,0.00,,,-99.99,,2013-07-19 01:11:00,
2013-07-18 22:02:00,82.0,72.0,-100.00,SW,225,2.0,4.0,73,0.00,,,-99.99,,2013-07-19 02:02:00,
2013-07-18 22:42:00,80.0,73.0,-100.00,SW,235,3.0,6.0,77,0.00,,,-99.99,,2013-07-19 02:42:00,